DELTA 1 DEB

Satellite information

Favourite Embed

Satellite Type and Status

DEBRISIN ORBIT

Key statistics

Satellite DELTA 1 DEB at a glance.

Uptime

17819

Days in orbit

Revolutions

≈ 12.4

Per day

Orbit

SSO

Sun Synchronous Orbit

Inclination

102.2

Latest

Satellite identification and parameters

Extended collection of information and parameters for DELTA 1 DEB.

Object identification

Identified? True

Debris? True

Object name: DELTA 1 DEB

International designator: 1976-077AH

Object number (NORAD): 10712

Object ID (CCSDS): 10712

Country: UNITED STATES OF AMERICA (US)

Current information (Y/N): Y

RCS size: SMALL

Orbital parameters

Period: 116.152 minutes

Inclination: 102.2228 deg

SMA: 7885.777 km

Apoapsis: 1569.787 km

Periapsis: 1445.497 km

RAAN: 259.0959 deg

Eccentricy: 0.0078807

Argument of periapsis: 122.404 deg

Mean anomaly: 315.4127 deg

Mean motion: 12.39755456 rev/day

Mean motion (dot): 0.00000621 rev/day2

B* drag term: 0.0049534 1/REarth

Two-line elements (TLE)

Creation date: May 12, 2025, 2:31 a.m.

Reference frame: TEME

Reference center: EARTH

Epoch: May 11, 2025, 9:59 p.m. UTC

TLE line 0: 0 DELTA 1 DEB

TLE line 1: 1 10712U 76077AH 25131.91635376 .00000621 00000-0 49534-2 0 9996

TLE line 2: 2 10712 102.2228 259.0959 0078807 122.4040 315.4127 12.39755456197919

Live tracking on map

Real-time ground track for satellite DELTA 1 DEB.

In-orbit conjunctions

A list of the most updated potential collisions computed for object DELTA 1 DEB.

Target Orbit TCA Probability of collision Miss distance Type
COSMOS 1526 LEO 2025-04-12 03:54:30 0.0001407821 162.0 (m) PAYLOAD
DELTA 1 DEB SSO 2025-03-04 05:02:08 0.000143686 196.0 (m) DEBRIS
COSMOS 1088 LEO 2024-07-02 05:16:21 0.0001632309 709.0 (m) PAYLOAD

Associated space launch

Meteorological satellite using radiometric imaging

DELTA 1 DEB was lifted into orbit during the mission ‘Delta 2310 | NOAA 5’, on board a Delta 2310 space rocket.

The launch took place on July 29, 1976, 5:07 p.m. from Space Launch Complex 2W.

For more information about the launch, click the button.

Launch to space Delta 2310 | NOAA 5
Delta 2310 | NOAA 5

Agency: N/A

Status: Launch Successful

Launch date: July 29, 1976, 5:07 p.m. UTC

Rocket: Delta 2310

Launch pad: Space Launch Complex 2W

Location: Vandenberg SFB, CA, USA

...

Latest news about this satellite

There are no fresh news available about this satellite. Check back as we update our databases every day.


Newsletter sign-up

Weekly statistics, charts and insights to help you stay on top of the space industry.